QPF
0.01 0.01 0.01 0.01 0.01 0.00 0.00 0.00 0.00 0.00 0.00 0.01 0.01 0.01 0.01 0.01 0.02 0.02 0.04 0.08 0.15 0.18 0.18 0.16 0.13 0.13 0.12 0.10 0.08 0.08 0.07 0.07 0.07 0.05 0.04 0.03 0.03 0.03 0.03 0.02 0.04 0.05 0.05
0.01 0.01 0.01 0.01 0.01 0.01 0.01 0.01 0.00 0.00 0.01 0.01 0.02 0.02 0.01 0.01 0.02 0.03 0.02 0.04 0.08 0.11 0.14 0.13 0.11 0.12 0.12 0.13 0.11 0.08 0.07 0.07 0.07 0.07 0.06 0.04 0.03 0.03 0.03 0.03 0.04 0.04 0.05
0.01 0.01 0.01 0.01 0.01 0.01 0.01 0.01 0.01 0.01 0.02 0.02 0.02 0.02 0.02 0.02 0.02 0.02 0.02 0.01 0.02 0.05 0.12 0.15 0.15 0.13 0.12 0.11 0.11 0.09 0.08 0.08 0.06 0.05 0.04 0.04 0.04 0.04 0.04 0.04 0.03 0.03 0.04
0.02 0.02 0.02 0.02 0.03 0.02 0.02 0.01 0.01 0.01 0.02 0.02 0.02 0.02 0.03 0.04 0.02 0.02 0.02 0.01 0.01 0.02 0.04 0.08 0.08 0.08 0.08 0.07 0.07 0.06 0.07 0.07 0.06 0.06 0.04 0.04 0.03 0.04 0.04 0.04 0.04 0.04 0.04
0.02 0.03 0.03 0.03 0.04 0.03 0.02 0.02 0.02 0.01 0.01 0.01 0.02 0.02 0.03 0.03 0.03 0.02 0.02 0.01 0.01 0.01 0.01 0.01 0.02 0.02 0.04 0.06 0.05 0.05 0.05 0.05 0.05 0.05 0.05 0.04 0.05 0.06 0.07 0.05 0.05 0.03 0.03
0.01 0.02 0.03 0.04 0.04 0.03 0.02 0.02 0.02 0.02 0.01 0.01 0.01 0.02 0.03 0.03 0.03 0.03 0.02 0.01 0.01 0.01 0.01 0.00 0.00 0.01 0.01 0.03 0.04 0.04 0.04 0.05 0.05 0.05 0.05 0.05 0.05 0.05 0.10 0.08 0.05 0.04 0.03
0.01 0.01 0.02 0.04 0.04 0.02 0.02 0.02 0.02 0.02 0.01 0.02 0.02 0.03 0.02 0.03 0.03 0.02 0.02 0.01 0.01 0.01 0.01 0.01 0.00 0.00 0.00 0.00 0.01 0.03 0.03 0.03 0.04 0.04 0.04 0.05 0.06 0.06 0.12 0.07 0.05 0.04 0.04
0.01 0.01 0.01 0.02 0.03 0.02 0.02 0.01 0.01 0.01 0.01 0.02 0.02 0.02 0.02 0.03 0.02 0.01 0.02 0.02 0.02 0.02 0.02 0.02 0.01 0.01 0.00 0.00 0.00 0.01 0.02 0.02 0.03 0.04 0.03 0.05 0.09 0.11 0.10 0.05 0.04 0.04 0.04
0.02 0.02 0.01 0.02 0.03 0.02 0.02 0.02 0.02 0.02 0.01 0.01 0.01 0.02 0.02 0.02 0.03 0.02 0.02 0.02 0.02 0.02 0.01 0.01 0.01 0.01 0.01 0.01 0.00 0.00 0.01 0.01 0.03 0.04 0.04 0.04 0.05 0.05 0.04 0.04 0.04 0.05 0.06
0.03 0.03 0.03 0.03 0.03 0.02 0.02 0.03 0.03 0.02 0.02 0.02 0.02 0.02 0.02 0.02 0.01 0.02 0.02 0.02 0.02 0.02 0.02 0.02 0.01 0.01 0.01 0.01 0.00 0.01 0.01 0.01 0.02 0.03 0.04 0.04 0.04 0.05 0.04 0.04 0.05 0.06 0.06
0.02 0.03 0.03 0.03 0.02 0.02 0.02 0.02 0.02 0.02 0.03 0.03 0.03 0.02 0.02 0.02 0.02 0.01 0.01 0.01 0.01 0.01 0.02 0.01 0.01 0.01 0.01 0.01 0.01 0.01 0.00 0.00 0.01 0.02 0.04 0.04 0.03 0.03 0.03 0.03 0.03 0.03 0.03
0.01 0.02 0.02 0.02 0.02 0.02 0.02 0.01 0.01 0.02 0.02 0.02 0.03 0.02 0.02 0.02 0.02 0.01 0.01 0.01 0.01 0.01 0.01 0.01 0.01 0.01 0.01 0.01 0.01 0.00 0.00 0.00 0.01 0.01 0.02 0.02 0.02 0.02 0.03 0.03 0.05 0.05 0.04
0.01 0.01 0.02 0.02 0.02 0.02 0.02 0.02 0.01 0.01 0.02 0.02 0.02 0.02 0.02 0.01 0.01 0.01 0.01 0.00 0.00 0.00 0.00 0.00 0.00 0.00 0.00 0.00 0.00 0.00 0.01 0.01 0.00 0.01 0.01 0.01 0.01 0.02 0.03 0.04 0.05 0.07 0.09
0.01 0.01 0.02 0.02 0.03 0.03 0.02 0.03 0.02 0.02 0.02 0.02 0.02 0.02 0.02 0.01 0.01 0.01 0.01 0.00 0.01 0.01 0.00 0.00 0.00 0.00 0.00 0.00 0.01 0.01 0.01 0.01 0.01 0.01 0.01 0.01 0.01 0.01 0.01 0.02 0.03 0.04 0.06
0.01 0.01 0.01 0.02 0.03 0.03 0.03 0.02 0.02 0.02 0.02 0.02 0.02 0.02 0.02 0.02 0.01 0.01 0.01 0.01 0.01 0.01 0.00 0.00 0.00 0.01 0.01 0.01 0.01 0.01 0.02 0.02 0.01 0.01 0.01 0.01 0.01 0.01 0.01 0.01 0.01 0.01 0.02
0.01 0.01 0.02 0.03 0.03 0.03 0.04 0.03 0.02 0.03 0.04 0.03 0.02 0.02 0.02 0.02 0.02 0.02 0.01 0.01 0.01 0.00 0.01 0.00 0.01 0.01 0.01 0.01 0.01 0.01 0.03 0.04 0.04 0.03 0.02 0.02 0.02 0.02 0.02 0.01 0.01 0.01 0.03
0.03 0.02 0.02 0.03 0.02 0.02 0.03 0.04 0.06 0.05 0.04 0.04 0.03 0.04 0.03 0.02 0.02 0.02 0.02 0.02 0.01 0.01 0.00 0.00 0.00 0.01 0.02 0.02 0.02 0.02 0.03 0.03 0.04 0.04 0.03 0.03 0.03 0.03 0.03 0.02 0.02 0.02 0.06
0.05 0.04 0.03 0.03 0.02 0.02 0.02 0.03 0.05 0.06 0.06 0.05 0.03 0.03 0.02 0.02 0.02 0.02 0.01 0.02 0.02 0.02 0.01 0.01 0.00 0.01 0.02 0.02 0.02 0.01 0.02 0.03 0.03 0.04 0.04 0.04 0.04 0.04 0.04 0.03 0.02 0.02 0.03
0.04 0.04 0.03 0.02 0.02 0.03 0.03 0.02 0.04 0.05 0.06 0.06 0.05 0.04 0.02 0.01 0.01 0.01 0.01 0.02 0.03 0.03 0.02 0.02 0.02 0.01 0.02 0.02 0.01 0.01 0.01 0.02 0.03 0.03 0.03 0.04 0.04 0.05 0.06 0.04 0.02 0.02 0.02
0.02 0.03 0.03 0.03 0.04 0.04 0.03 0.03 0.03 0.03 0.04 0.04 0.05 0.04 0.02 0.01 0.01 0.01 0.01 0.01 0.02 0.02 0.02 0.02 0.02 0.02 0.02 0.02 0.01 0.01 0.01 0.01 0.02 0.02 0.02 0.03 0.03 0.03 0.04 0.05 0.05 0.04 0.03
0.01 0.02 0.03 0.05 0.05 0.05 0.03 0.03 0.03 0.04 0.03 0.04 0.05 0.04 0.03 0.02 0.02 0.02 0.01 0.01 0.01 0.01 0.02 0.02 0.02 0.02 0.01 0.01 0.01 0.01 0.01 0.01 0.01 0.01 0.01 0.02 0.03 0.02 0.03 0.04 0.06 0.05 0.04
0.02 0.02 0.03 0.05 0.05 0.06 0.05 0.05 0.04 0.04 0.04 0.04 0.04 0.04 0.03 0.03 0.03 0.02 0.02 0.02 0.02 0.02 0.01 0.01 0.02 0.02 0.02 0.02 0.01 0.01 0.01 0.01 0.01 0.01 0.01 0.01 0.02 0.03 0.03 0.04 0.05 0.05 0.04
0.02 0.03 0.05 0.05 0.05 0.05 0.07 0.08 0.07 0.05 0.04 0.03 0.03 0.03 0.04 0.03 0.03 0.02 0.01 0.01 0.01 0.02 0.02 0.03 0.02 0.01 0.01 0.01 0.02 0.02 0.02 0.01 0.01 0.01 0.02 0.02 0.02 0.02 0.02 0.03 0.03 0.03 0.04
0.02 0.02 0.03 0.04 0.03 0.04 0.05 0.06 0.08 0.07 0.05 0.04 0.03 0.03 0.03 0.03 0.03 0.02 0.01 0.01 0.01 0.01 0.02 0.03 0.04 0.04 0.03 0.02 0.03 0.03 0.03 0.03 0.02 0.02 0.02 0.02 0.01 0.01 0.01 0.02 0.03 0.03 0.03
0.02 0.02 0.02 0.02 0.02 0.03 0.03 0.03 0.05 0.05 0.05 0.05 0.04 0.03 0.02 0.02 0.02 0.03 0.02 0.01 0.01 0.01 0.01 0.01 0.01 0.02 0.02 0.02 0.03 0.03 0.04 0.04 0.02 0.02 0.02 0.02 0.01 0.01 0.01 0.01 0.01 0.02 0.02
0.02 0.02 0.02 0.02 0.02 0.02 0.02 0.03 0.03 0.03 0.04 0.04 0.04 0.03 0.02 0.02 0.02 0.03 0.02 0.02 0.01 0.01 0.02 0.01 0.01 0.01 0.01 0.01 0.02 0.02 0.02 0.03 0.03 0.02 0.03 0.03 0.02 0.01 0.01 0.01 0.01 0.01 0.01
MSLP
1016.78 1016.94 1017.10 1017.29 1017.53 1017.81 1018.15 1018.52 1018.92 1019.31 1019.66 1019.95 1020.15 1020.27 1020.31 1020.30 1020.26 1020.20 1020.15 1020.13 1020.12 1020.14 1020.17 1020.22 1020.28 1020.35 1020.43 1020.52 1020.62 1020.72 1020.81 1020.90 1020.95 1020.98 1020.98 1020.96 1020.91 1020.83 1020.73 1020.59 1020.42 1020.20 1019.92
1017.02 1017.21 1017.42 1017.66 1017.93 1018.25 1018.61 1019.01 1019.43 1019.85 1020.24 1020.58 1020.86 1021.06 1021.19 1021.25 1021.27 1021.26 1021.23 1021.20 1021.17 1021.16 1021.14 1021.14 1021.14 1021.16 1021.19 1021.24 1021.30 1021.36 1021.44 1021.51 1021.56 1021.60 1021.60 1021.58 1021.53 1021.45 1021.33 1021.18 1020.99 1020.75 1020.46
1017.19 1017.43 1017.70 1018.00 1018.34 1018.71 1019.11 1019.54 1019.99 1020.44 1020.87 1021.27 1021.61 1021.89 1022.11 1022.26 1022.36 1022.40 1022.41 1022.39 1022.35 1022.29 1022.22 1022.15 1022.09 1022.03 1022.00 1021.98 1021.99 1022.02 1022.06 1022.11 1022.15 1022.18 1022.19 1022.17 1022.11 1022.02 1021.88 1021.71 1021.49 1021.24 1020.94
1017.31 1017.61 1017.96 1018.34 1018.76 1019.19 1019.64 1020.10 1020.58 1021.05 1021.51 1021.95 1022.35 1022.72 1023.02 1023.26 1023.44 1023.56 1023.61 1023.61 1023.57 1023.48 1023.36 1023.23 1023.09 1022.96 1022.85 1022.77 1022.71 1022.69 1022.69 1022.72 1022.74 1022.76 1022.76 1022.72 1022.65 1022.53 1022.37 1022.17 1021.94 1021.66 1021.36
1017.41 1017.77 1018.20 1018.66 1019.15 1019.65 1020.15 1020.65 1021.14 1021.62 1022.10 1022.57 1023.02 1023.44 1023.83 1024.16 1024.43 1024.63 1024.75 1024.79 1024.76 1024.67 1024.52 1024.34 1024.14 1023.94 1023.76 1023.61 1023.49 1023.41 1023.37 1023.35 1023.35 1023.34 1023.31 1023.25 1023.15 1023.00 1022.81 1022.58 1022.31 1022.02 1021.71
1017.49 1017.91 1018.40 1018.94 1019.50 1020.06 1020.60 1021.12 1021.61 1022.10 1022.58 1023.06 1023.54 1024.01 1024.46 1024.88 1025.24 1025.52 1025.72 1025.83 1025.85 1025.78 1025.64 1025.44 1025.20 1024.96 1024.72 1024.50 1024.32 1024.19 1024.10 1024.04 1023.99 1023.95 1023.88 1023.78 1023.64 1023.45 1023.21 1022.94 1022.64 1022.33 1022.02
1017.56 1018.01 1018.55 1019.14 1019.75 1020.35 1020.92 1021.45 1021.94 1022.42 1022.89 1023.36 1023.85 1024.36 1024.86 1025.35 1025.80 1026.18 1026.47 1026.67 1026.76 1026.75 1026.65 1026.47 1026.23 1025.96 1025.69 1025.43 1025.20 1025.02 1024.88 1024.77 1024.67 1024.58 1024.47 1024.32 1024.13 1023.89 1023.61 1023.30 1022.97 1022.63 1022.31
1017.59 1018.05 1018.61 1019.23 1019.87 1020.50 1021.08 1021.61 1022.10 1022.55 1023.00 1023.46 1023.95 1024.47 1025.01 1025.56 1026.08 1026.56 1026.96 1027.26 1027.45 1027.53 1027.50 1027.37 1027.17 1026.91 1026.63 1026.35 1026.10 1025.87 1025.68 1025.52 1025.38 1025.24 1025.08 1024.89 1024.65 1024.36 1024.04 1023.68 1023.32 1022.96 1022.62
1017.58 1018.04 1018.59 1019.22 1019.87 1020.50 1021.08 1021.60 1022.07 1022.51 1022.93 1023.37 1023.84 1024.36 1024.92 1025.51 1026.10 1026.66 1027.16 1027.57 1027.88 1028.07 1028.14 1028.10 1027.96 1027.75 1027.49 1027.22 1026.94 1026.69 1026.46 1026.26 1026.08 1025.90 1025.70 1025.47 1025.20 1024.88 1024.52 1024.13 1023.74 1023.36 1023.00
1017.54 1017.97 1018.51 1019.12 1019.76 1020.38 1020.95 1021.47 1021.92 1022.34 1022.74 1023.15 1023.61 1024.11 1024.67 1025.28 1025.91 1026.53 1027.12 1027.63 1028.06 1028.36 1028.55 1028.62 1028.57 1028.42 1028.21 1027.96 1027.69 1027.42 1027.18 1026.95 1026.74 1026.53 1026.31 1026.06 1025.77 1025.44 1025.06 1024.67 1024.26 1023.86 1023.48
1017.47 1017.88 1018.39 1018.98 1019.60 1020.21 1020.78 1021.28 1021.73 1022.12 1022.50 1022.89 1023.32 1023.80 1024.34 1024.94 1025.58 1026.24 1026.89 1027.49 1028.01 1028.43 1028.74 1028.91 1028.97 1028.91 1028.76 1028.55 1028.30 1028.04 1027.78 1027.54 1027.32 1027.10 1026.88 1026.63 1026.35 1026.03 1025.67 1025.28 1024.87 1024.47 1024.08
1017.42 1017.80 1018.30 1018.87 1019.47 1020.06 1020.62 1021.12 1021.56 1021.95 1022.31 1022.67 1023.06 1023.50 1024.01 1024.58 1025.21 1025.88 1026.55 1027.20 1027.80 1028.32 1028.73 1029.02 1029.17 1029.21 1029.13 1028.97 1028.75 1028.51 1028.26 1028.02 1027.80 1027.60 1027.39 1027.17 1026.93 1026.64 1026.32 1025.96 1025.57 1025.16 1024.77
1017.41 1017.80 1018.28 1018.83 1019.41 1020.00 1020.55 1021.04 1021.48 1021.87 1022.21 1022.55 1022.91 1023.31 1023.76 1024.28 1024.87 1025.51 1026.19 1026.86 1027.51 1028.10 1028.60 1028.99 1029.24 1029.36 1029.36 1029.25 1029.08 1028.86 1028.63 1028.40 1028.20 1028.01 1027.84 1027.66 1027.46 1027.23 1026.96 1026.64 1026.28 1025.90 1025.51
1017.49 1017.88 1018.36 1018.90 1019.47 1020.04 1020.59 1021.09 1021.53 1021.92 1022.26 1022.58 1022.90 1023.25 1023.64 1024.11 1024.63 1025.23 1025.88 1026.55 1027.22 1027.85 1028.42 1028.88 1029.22 1029.42 1029.49 1029.45 1029.32 1029.13 1028.91 1028.70 1028.51 1028.35 1028.21 1028.07 1027.93 1027.75 1027.54 1027.28 1026.96 1026.62 1026.24
1017.67 1018.08 1018.55 1019.09 1019.65 1020.22 1020.76 1021.26 1021.71 1022.10 1022.43 1022.74 1023.04 1023.34 1023.68 1024.08 1024.54 1025.08 1025.68 1026.32 1027.00 1027.65 1028.26 1028.78 1029.19 1029.46 1029.60 1029.61 1029.52 1029.36 1029.16 1028.96 1028.78 1028.63 1028.51 1028.40 1028.30 1028.17 1028.01 1027.80 1027.54 1027.23 1026.88
1017.97 1018.38 1018.86 1019.39 1019.94 1020.50 1021.04 1021.53 1021.98 1022.38 1022.72 1023.03 1023.30 1023.58 1023.88 1024.22 1024.61 1025.08 1025.63 1026.24 1026.89 1027.55 1028.18 1028.74 1029.20 1029.53 1029.73 1029.79 1029.73 1029.60 1029.41 1029.21 1029.03 1028.88 1028.75 1028.65 1028.56 1028.46 1028.34 1028.16 1027.94 1027.67 1027.37
1018.36 1018.78 1019.26 1019.77 1020.31 1020.85 1021.37 1021.87 1022.33 1022.73 1023.09 1023.40 1023.68 1023.94 1024.20 1024.50 1024.84 1025.25 1025.74 1026.30 1026.92 1027.56 1028.20 1028.78 1029.28 1029.65 1029.89 1030.00 1029.97 1029.86 1029.68 1029.47 1029.27 1029.09 1028.95 1028.83 1028.73 1028.62 1028.50 1028.34 1028.15 1027.91 1027.64
1018.83 1019.25 1019.71 1020.20 1020.72 1021.23 1021.74 1022.23 1022.69 1023.11 1023.49 1023.82 1024.11 1024.37 1024.63 1024.90 1025.20 1025.56 1025.99 1026.50 1027.07 1027.68 1028.30 1028.89 1029.41 1029.81 1030.09 1030.23 1030.23 1030.13 1029.96 1029.74 1029.51 1029.30 1029.11 1028.95 1028.80 1028.67 1028.52 1028.36 1028.16 1027.95 1027.72
1019.35 1019.76 1020.20 1020.66 1021.14 1021.63 1022.12 1022.60 1023.06 1023.50 1023.90 1024.26 1024.57 1024.85 1025.11 1025.36 1025.64 1025.95 1026.33 1026.78 1027.30 1027.87 1028.46 1029.04 1029.55 1029.98 1030.28 1030.44 1030.48 1030.40 1030.23 1030.00 1029.75 1029.49 1029.25 1029.04 1028.84 1028.64 1028.45 1028.26 1028.05 1027.84 1027.62
1019.89 1020.28 1020.70 1021.13 1021.58 1022.03 1022.50 1022.97 1023.43 1023.88 1024.30 1024.69 1025.04 1025.34 1025.61 1025.86 1026.11 1026.39 1026.71 1027.10 1027.56 1028.07 1028.62 1029.16 1029.67 1030.09 1030.41 1030.60 1030.66 1030.61 1030.45 1030.23 1029.96 1029.68 1029.40 1029.12 1028.86 1028.61 1028.36 1028.12 1027.87 1027.64 1027.42
1020.43 1020.81 1021.20 1021.60 1022.02 1022.44 1022.88 1023.33 1023.79 1024.25 1024.69 1025.11 1025.48 1025.81 1026.09 1026.34 1026.57 1026.81 1027.09 1027.42 1027.81 1028.25 1028.74 1029.24 1029.72 1030.14 1030.46 1030.67 1030.76 1030.74 1030.61 1030.41 1030.14 1029.85 1029.54 1029.23 1028.92 1028.61 1028.30 1028.00 1027.71 1027.44 1027.20
1020.95 1021.32 1021.70 1022.07 1022.46 1022.86 1023.27 1023.70 1024.15 1024.61 1025.06 1025.49 1025.88 1026.22 1026.52 1026.76 1026.98 1027.19 1027.42 1027.69 1028.01 1028.39 1028.81 1029.25 1029.69 1030.09 1030.41 1030.64 1030.76 1030.77 1030.68 1030.52 1030.28 1030.00 1029.69 1029.36 1029.02 1028.67 1028.32 1027.96 1027.62 1027.30 1027.02
1021.42 1021.80 1022.17 1022.54 1022.90 1023.27 1023.66 1024.07 1024.49 1024.94 1025.39 1025.82 1026.22 1026.57 1026.86 1027.11 1027.31 1027.49 1027.68 1027.90 1028.16 1028.47 1028.82 1029.21 1029.60 1029.97 1030.28 1030.52 1030.66 1030.71 1030.67 1030.55 1030.36 1030.11 1029.83 1029.51 1029.17 1028.80 1028.42 1028.03 1027.64 1027.27 1026.93
1021.83 1022.23 1022.61 1022.97 1023.32 1023.66 1024.02 1024.40 1024.80 1025.22 1025.65 1026.07 1026.46 1026.81 1027.11 1027.35 1027.55 1027.71 1027.87 1028.05 1028.26 1028.51 1028.81 1029.14 1029.48 1029.81 1030.11 1030.34 1030.50 1030.58 1030.58 1030.50 1030.36 1030.17 1029.93 1029.65 1029.33 1028.98 1028.59 1028.17 1027.75 1027.32 1026.93
1022.16 1022.58 1022.98 1023.34 1023.68 1024.00 1024.33 1024.67 1025.04 1025.42 1025.82 1026.22 1026.60 1026.94 1027.24 1027.48 1027.68 1027.85 1028.00 1028.16 1028.34 1028.55 1028.80 1029.08 1029.38 1029.67 1029.92 1030.14 1030.29 1030.39 1030.41 1030.38 1030.29 1030.15 1029.97 1029.74 1029.46 1029.13 1028.75 1028.33 1027.88 1027.43 1026.98
1022.39 1022.85 1023.26 1023.62 1023.95 1024.25 1024.55 1024.85 1025.17 1025.52 1025.88 1026.26 1026.62 1026.96 1027.26 1027.51 1027.73 1027.91 1028.07 1028.23 1028.40 1028.60 1028.82 1029.06 1029.30 1029.55 1029.76 1029.94 1030.08 1030.16 1030.20 1030.18 1030.13 1030.04 1029.90 1029.72 1029.48 1029.20 1028.85 1028.44 1027.99 1027.50 1027.01
Thickness
5724 5723 5722 5721 5720 5719 5718 5716 5715 5714 5713 5713 5712 5712 5711 5711 5710 5710 5711 5711 5712 5712 5712 5712 5711 5711 5710 5709 5709 5708 5708 5707 5707 5707 5707 5707 5707 5707 5708 5709 5709 5710 5711
5721 5720 5719 5717 5716 5715 5714 5713 5711 5710 5709 5708 5708 5707 5706 5706 5705 5705 5705 5706 5707 5707 5707 5707 5707 5706 5706 5705 5705 5704 5704 5704 5703 5703 5703 5703 5703 5703 5704 5704 5705 5705 5706
5718 5717 5715 5714 5712 5711 5710 5709 5707 5706 5705 5704 5702 5702 5701 5701 5700 5700 5700 5700 5700 5701 5701 5701 5701 5701 5701 5701 5700 5700 5699 5699 5698 5698 5698 5698 5698 5699 5699 5700 5700 5701 5702
5714 5713 5711 5710 5709 5707 5706 5705 5703 5700 5699 5697 5697 5696 5696 5696 5695 5695 5695 5694 5694 5694 5695 5695 5696 5696 5696 5696 5695 5695 5695 5694 5694 5694 5694 5694 5694 5694 5695 5695 5696 5696 5696
5710 5709 5707 5706 5705 5704 5702 5701 5698 5696 5693 5692 5692 5691 5690 5690 5690 5690 5689 5688 5688 5688 5688 5689 5689 5690 5690 5690 5690 5690 5690 5690 5690 5690 5690 5689 5689 5689 5690 5690 5691 5691 5692
5706 5705 5703 5702 5701 5699 5697 5695 5692 5691 5689 5688 5688 5685 5684 5684 5684 5683 5683 5683 5682 5682 5682 5683 5683 5683 5684 5684 5685 5685 5685 5685 5685 5685 5685 5685 5686 5685 5685 5685 5686 5686 5686
5702 5701 5700 5698 5697 5695 5693 5691 5688 5685 5683 5683 5681 5678 5678 5678 5678 5677 5677 5677 5677 5676 5677 5677 5677 5677 5678 5678 5678 5679 5679 5680 5680 5680 5680 5681 5682 5681 5681 5680 5680 5681 5681
5697 5697 5696 5694 5692 5690 5688 5687 5685 5681 5679 5679 5676 5672 5669 5669 5670 5672 5671 5672 5671 5671 5671 5671 5671 5671 5671 5672 5672 5673 5673 5674 5675 5675 5675 5676 5676 5676 5675 5675 5675 5675 5675
5693 5693 5692 5690 5689 5687 5684 5683 5681 5679 5675 5674 5674 5671 5665 5662 5662 5664 5665 5665 5665 5665 5665 5666 5666 5666 5666 5666 5667 5667 5668 5668 5669 5670 5670 5670 5670 5670 5670 5670 5670 5670 5670
5689 5689 5688 5687 5685 5683 5681 5679 5678 5676 5674 5671 5670 5669 5667 5665 5660 5657 5658 5659 5660 5660 5660 5660 5660 5661 5661 5661 5662 5662 5663 5663 5663 5664 5664 5664 5664 5664 5664 5664 5664 5664 5664
5684 5684 5683 5682 5681 5679 5678 5676 5674 5673 5672 5669 5667 5665 5663 5661 5659 5655 5652 5652 5653 5654 5655 5655 5655 5656 5656 5656 5656 5657 5657 5658 5658 5658 5658 5658 5658 5658 5658 5658 5658 5658 5659
5679 5679 5679 5678 5676 5675 5674 5672 5671 5670 5668 5667 5665 5664 5661 5659 5656 5653 5649 5648 5647 5648 5649 5650 5651 5651 5651 5651 5651 5651 5652 5652 5652 5652 5652 5652 5652 5652 5652 5652 5652 5653 5653
5674 5674 5674 5673 5672 5671 5670 5669 5667 5666 5665 5664 5663 5661 5660 5659 5657 5653 5648 5645 5643 5643 5644 5645 5646 5645 5645 5645 5645 5646 5646 5646 5646 5646 5646 5646 5646 5646 5646 5646 5647 5647 5647
5670 5670 5669 5668 5668 5667 5666 5665 5663 5662 5661 5660 5660 5658 5656 5655 5654 5651 5647 5643 5639 5638 5638 5639 5640 5640 5640 5640 5640 5640 5640 5640 5640 5640 5640 5640 5640 5640 5640 5640 5641 5641 5642
5667 5666 5665 5664 5663 5662 5662 5661 5659 5658 5657 5656 5655 5654 5652 5651 5650 5648 5646 5643 5639 5635 5634 5634 5634 5634 5634 5634 5634 5634 5634 5634 5635 5635 5635 5634 5634 5634 5634 5634 5635 5635 5635
5662 5661 5660 5660 5659 5658 5657 5656 5655 5654 5653 5651 5650 5649 5648 5646 5645 5643 5641 5638 5637 5634 5630 5629 5628 5628 5628 5628 5628 5628 5628 5629 5629 5629 5629 5629 5629 5628 5628 5628 5628 5628 5628
5658 5657 5656 5655 5654 5653 5652 5651 5650 5649 5648 5646 5645 5644 5643 5641 5639 5638 5636 5634 5632 5629 5625 5624 5623 5622 5622 5622 5622 5622 5623 5623 5623 5623 5623 5623 5623 5623 5622 5621 5621 5621 5621
5653 5652 5651 5651 5650 5649 5648 5646 5645 5644 5643 5641 5640 5639 5638 5637 5635 5633 5631 5629 5627 5625 5622 5619 5618 5616 5616 5616 5616 5616 5616 5617 5617 5617 5618 5618 5618 5617 5616 5616 5615 5615 5615
5648 5647 5647 5646 5645 5644 5643 5642 5641 5639 5638 5637 5636 5635 5633 5632 5629 5627 5626 5624 5623 5622 5619 5615 5613 5611 5610 5610 5609 5610 5610 5610 5611 5612 5612 5612 5612 5612 5611 5611 5610 5610 5610
5644 5643 5642 5642 5641 5640 5638 5637 5636 5635 5634 5633 5632 5630 5629 5627 5626 5624 5622 5620 5618 5615 5613 5610 5608 5606 5605 5604 5603 5603 5603 5603 5604 5606 5606 5607 5607 5606 5606 5606 5606 5606 5606
5639 5638 5637 5637 5636 5635 5635 5633 5632 5631 5629 5627 5626 5625 5625 5624 5623 5621 5619 5616 5614 5610 5607 5605 5602 5601 5600 5598 5598 5597 5597 5597 5598 5599 5600 5601 5601 5601 5601 5602 5601 5601 5601
5632 5632 5632 5631 5631 5632 5632 5630 5629 5626 5624 5622 5621 5620 5620 5619 5618 5617 5615 5614 5611 5608 5604 5601 5598 5597 5597 5596 5594 5594 5592 5591 5592 5593 5593 5594 5594 5595 5596 5597 5597 5597 5597
5626 5625 5626 5626 5626 5627 5627 5626 5625 5622 5620 5618 5616 5615 5615 5614 5613 5611 5610 5608 5606 5605 5604 5601 5597 5596 5595 5593 5591 5589 5588 5587 5587 5588 5586 5588 5588 5589 5591 5591 5592 5592 5592
5620 5620 5620 5620 5620 5621 5622 5621 5620 5617 5615 5613 5612 5610 5609 5608 5607 5606 5604 5602 5600 5599 5598 5597 5595 5595 5594 5592 5589 5588 5585 5583 5582 5581 5581 5582 5583 5583 5586 5586 5587 5587 5587
5614 5614 5614 5614 5614 5615 5616 5615 5614 5611 5609 5608 5606 5605 5604 5603 5603 5601 5599 5596 5594 5594 5593 5592 5591 5590 5589 5587 5585 5582 5579 5578 5577 5577 5576 5576 5577 5578 5580 5581 5582 5582 5582
5609 5609 5608 5608 5608 5608 5609 5609 5608 5605 5603 5602 5601 5600 5599 5599 5598 5596 5594 5591 5589 5588 5587 5586 5584 5584 5582 5581 5580 5578 5577 5573 5572 5572 5572 5570 5571 5571 5574 5576 5576 5576 5576